| time (UTC) | temp F | wind direction | speed MPH | gust MPH | rain 1hr in | rain 24hr in | rain mn in | humidity % | barometer mb |
| 20260506140503 | 68 | 259 | 2.0 | 8.0 | 0.00 | 0.00 | 0.00 | 77 | 1014.3 |
| 20260506140002 | 68 | 289 | 2.0 | 8.0 | 0.00 | 0.00 | 0.00 | 78 | 1014.3 |
| 20260506135500 | 67 | 286 | 3.0 | 6.0 | 0.00 | 0.00 | 0.00 | 78 | 1014.3 |
| 20260506135002 | 67 | 277 | 3.0 | 8.0 | 0.00 | 0.00 | 0.00 | 77 | 1014.4 |
| 20260506134500 | 67 | 298 | 3.0 | 9.0 | 0.00 | 0.00 | 0.00 | 78 | 1014.4 |
| 20260506134000 | 67 | 281 | 1.0 | 9.0 | 0.00 | 0.00 | 0.00 | 79 | 1014.5 |
| 20260506133503 | 67 | 314 | 1.0 | 3.0 | 0.00 | 0.00 | 0.00 | 79 | 1014.2 |
| 20260506132500 | 66 | 309 | 2.0 | 5.0 | 0.00 | 0.00 | 0.00 | 80 | 1014.4 |
| 20260506132002 | 66 | 167 | 2.0 | 7.0 | 0.00 | 0.00 | 0.00 | 80 | 1014.4 |
| 20260506131500 | 65 | 322 | 1.0 | 4.0 | 0.00 | 0.00 | 0.00 | 82 | 1014.6 |
| 20260506131000 | 65 | 267 | 1.0 | 4.0 | 0.00 | 0.00 | 0.00 | 83 | 1014.5 |
| 20260506130500 | 64 | 282 | 1.0 | 2.0 | 0.00 | 0.00 | 0.00 | 84 | 1014.6 |
| 20260506130007 | 64 | 185 | 0.0 | 2.0 | 0.00 | 0.00 | 0.00 | 84 | 1014.6 |
| 20260506125501 | 64 | 261 | 0.0 | 2.0 | 0.00 | 0.00 | 0.00 | 84 | 1014.7 |
| 20260506125001 | 63 | 246 | 0.0 | 2.0 | 0.00 | 0.00 | 0.00 | 84 | 1014.6 |
| 20260506124001 | 63 | 277 | 0.0 | 2.0 | 0.00 | 0.00 | 0.00 | 84 | 1014.7 |
| 20260506122501 | 63 | 237 | 0.0 | 1.0 | 0.00 | 0.00 | 0.00 | 85 | 1014.4 |
| 20260506122001 | 63 | 237 | 0.0 | 2.0 | 0.00 | 0.00 | 0.00 | 85 | 1014.1 |
| 20260506121501 | 63 | 237 | 0.0 | 0.0 | 0.00 | 0.00 | 0.00 | 85 | 1013.9 |
| 20260506121003 | 63 | 237 | 0.0 | 0.0 | 0.00 | 0.00 | 0.00 | 85 | 1014.1 |
| 20260506120501 | 62 | 237 | 0.0 | 0.0 | 0.00 | 0.00 | 0.00 | 85 | 1014.3 |
| 20260506120004 | 62 | 237 | 0.0 | 0.0 | 0.00 | 0.00 | 0.00 | 84 | 1014.3 |
| 20260506115501 | 62 | 237 | 0.0 | 0.0 | 0.00 | 0.00 | 0.00 | 84 | 1014.3 |
| 20260506115003 | 62 | 237 | 0.0 | 0.0 | 0.00 | 0.00 | 0.00 | 84 | 1014.3 |
| 20260506114501 | 62 | 237 | 0.0 | 0.0 | 0.00 | 0.00 | 0.00 | 83 | 1014.3 |
| 20260506114001 | 62 | 237 | 0.0 | 0.0 | 0.00 | 0.00 | 0.00 | 83 | 1014.3 |
| 20260506113502 | 62 | 237 | 0.0 | 0.0 | 0.00 | 0.00 | 0.00 | 84 | 1014.4 |
| 20260506113003 | 62 | 237 | 0.0 | 0.0 | 0.00 | 0.00 | 0.00 | 82 | 1014.4 |
| 20260506112501 | 62 | 237 | 0.0 | 0.0 | 0.00 | 0.00 | 0.00 | 82 | 1014.2 |
| 20260506112001 | 63 | 237 | 0.0 | 0.0 | 0.00 | 0.00 | 0.00 | 83 | 1014.3 |
| 20260506110501 | 63 | 237 | 0.0 | 1.0 | 0.00 | 0.00 | 0.00 | 81 | 1013.9 |
| 20260506110002 | 63 | 237 | 0.0 | 1.0 | 0.00 | 0.00 | 0.00 | 81 | 1013.9 |
| 20260506105500 | 63 | 237 | 0.0 | 0.0 | 0.00 | 0.00 | 0.00 | 80 | 1013.7 |
| 20260506105001 | 63 | 237 | 0.0 | 1.0 | 0.00 | 0.00 | 0.00 | 80 | 1013.6 |
| 20260506104500 | 63 | 237 | 0.0 | 1.0 | 0.00 | 0.00 | 0.00 | 80 | 1013.5 |
| 20260506103500 | 63 | 196 | 0.0 | 1.0 | 0.00 | 0.00 | 0.00 | 80 | 1013.5 |
| 20260506103002 | 63 | 196 | 0.0 | 1.0 | 0.00 | 0.00 | 0.00 | 80 | 1013.5 |
| 20260506102500 | 63 | 196 | 0.0 | 2.0 | 0.00 | 0.00 | 0.00 | 80 | 1013.4 |
| 20260506102000 | 63 | 175 | 0.0 | 3.0 | 0.00 | 0.00 | 0.00 | 80 | 1013.2 |
| 20260506101500 | 63 | 173 | 1.0 | 3.0 | 0.00 | 0.00 | 0.00 | 79 | 1013.2 |
| 20260506101003 | 63 | 137 | 0.0 | 2.0 | 0.00 | 0.00 | 0.00 | 79 | 1013.2 |
| 20260506100500 | 63 | 278 | 0.0 | 1.0 | 0.00 | 0.00 | 0.00 | 79 | 1013.1 |
| 20260506100004 | 63 | 271 | 0.0 | 2.0 | 0.00 | 0.00 | 0.00 | 79 | 1013.0 |
| 20260506095500 | 63 | 195 | 1.0 | 4.0 | 0.00 | 0.00 | 0.00 | 78 | 1012.7 |
| 20260506094502 | 64 | 192 | 1.0 | 3.0 | 0.00 | 0.00 | 0.00 | 78 | 1012.9 |
| 20260506094000 | 64 | 123 | 1.0 | 3.0 | 0.00 | 0.00 | 0.00 | 78 | 1012.9 |
| 20260506093500 | 64 | 190 | 1.0 | 4.0 | 0.00 | 0.00 | 0.00 | 78 | 1013.0 |
| 20260506093000 | 64 | 205 | 0.0 | 2.0 | 0.00 | 0.00 | 0.00 | 78 | 1013.0 |
| 20260506092502 | 64 | 213 | 1.0 | 2.0 | 0.00 | 0.00 | 0.00 | 78 | 1013.0 |
| 20260506092002 | 64 | 185 | 1.0 | 2.0 | 0.00 | 0.00 | 0.00 | 78 | 1013.2 |
| 20260506091500 | 64 | 195 | 1.0 | 2.0 | 0.00 | 0.00 | 0.00 | 78 | 1013.1 |
| 20260506091000 | 64 | 190 | 1.0 | 3.0 | 0.00 | 0.00 | 0.00 | 77 | 1013.3 |
| 20260506090004 | 64 | 155 | 1.0 | 3.0 | 0.00 | 0.00 | 0.00 | 77 | 1013.2 |
| 20260506085500 | 64 | 165 | 1.0 | 5.0 | 0.00 | 0.00 | 0.00 | 77 | 1013.2 |
| 20260506085000 | 64 | 251 | 1.0 | 4.0 | 0.00 | 0.00 | 0.00 | 77 | 1013.2 |
| 20260506084002 | 64 | 215 | 1.0 | 3.0 | 0.00 | 0.00 | 0.00 | 76 | 1013.2 |
| 20260506083500 | 64 | 194 | 1.0 | 3.0 | 0.00 | 0.00 | 0.00 | 76 | 1013.4 |
| 20260506083000 | 64 | 294 | 1.0 | 3.0 | 0.00 | 0.00 | 0.00 | 76 | 1013.4 |
| 20260506082001 | 64 | 149 | 1.0 | 3.0 | 0.00 | 0.00 | 0.00 | 76 | 1013.6 |
| 20260506081501 | 64 | 142 | 1.0 | 3.0 | 0.00 | 0.00 | 0.00 | 75 | 1013.6 |
| 20260506081001 | 64 | 177 | 1.0 | 4.0 | 0.00 | 0.00 | 0.00 | 75 | 1013.5 |
| 20260506080500 | 64 | 175 | 1.0 | 5.0 | 0.00 | 0.00 | 0.00 | 75 | 1013.5 |
| 20260506073501 | 64 | 123 | 1.0 | 8.0 | 0.00 | 0.00 | 0.00 | 74 | 1013.6 |
| 20260506073002 | 64 | 187 | 1.0 | 8.0 | 0.00 | 0.00 | 0.00 | 73 | 1013.6 |
| 20260506072501 | 65 | 267 | 1.0 | 7.0 | 0.00 | 0.00 | 0.00 | 73 | 1013.5 |
| 20260506072001 | 65 | 189 | 1.0 | 4.0 | 0.00 | 0.00 | 0.00 | 73 | 1013.5 |
| 20260506071501 | 65 | 169 | 1.0 | 3.0 | 0.00 | 0.00 | 0.00 | 72 | 1013.5 |
| 20260506070500 | 65 | 186 | 1.0 | 5.0 | 0.00 | 0.00 | 0.00 | 72 | 1013.5 |
| 20260506062502 | 65 | 162 | 0.0 | 3.0 | 0.00 | 0.00 | 0.00 | 69 | 1013.8 |
| 20260506062000 | 64 | 154 | 1.0 | 3.0 | 0.00 | 0.00 | 0.00 | 69 | 1013.7 |
| 20260506061501 | 64 | 182 | 1.0 | 4.0 | 0.00 | 0.00 | 0.00 | 69 | 1013.7 |
| 20260506061000 | 64 | 208 | 1.0 | 4.0 | 0.00 | 0.00 | 0.00 | 70 | 1013.5 |
| 20260506060502 | 64 | 182 | 1.0 | 3.0 | 0.00 | 0.00 | 0.00 | 70 | 1013.4 |
| 20260506051001 | 63 | 284 | 0.0 | 0.0 | 0.00 | 0.00 | 0.00 | 74 | 1013.5 |
| 20260506050500 | 63 | 284 | 0.0 | 1.0 | 0.00 | 0.00 | 0.00 | 75 | 1013.5 |
| 20260506045000 | 63 | 284 | 0.0 | 0.0 | 0.00 | 0.00 | 0.00 | 73 | 1014.0 |
| 20260506044500 | 63 | 284 | 0.0 | 0.0 | 0.00 | 0.00 | 0.00 | 74 | 1013.8 |
| 20260506043500 | 63 | 284 | 0.0 | 0.0 | 0.00 | 0.00 | 0.00 | 71 | 1013.8 |
| 20260506043000 | 63 | 284 | 0.0 | 0.0 | 0.00 | 0.00 | 0.00 | 72 | 1013.7 |
| 20260506042500 | 63 | 284 | 0.0 | 0.0 | 0.00 | 0.00 | 0.00 | 71 | 1013.8 |
| 20260506041500 | 63 | 284 | 0.0 | 2.0 | 0.00 | 0.00 | 0.00 | 71 | 1013.9 |
| 20260506041002 | 63 | 256 | 0.0 | 1.0 | 0.00 | 0.00 | 0.00 | 72 | 1013.8 |
| 20260506040500 | 63 | 247 | 0.0 | 0.0 | 0.00 | 0.00 | 0.00 | 70 | 1013.7 |
| 20260506040009 | 63 | 248 | 0.0 | 1.0 | 0.00 | 0.00 | 0.00 | 71 | 1013.6 |
| 20260506035502 | 63 | 247 | 0.0 | 1.0 | 0.00 | 0.00 | 0.00 | 70 | 1013.5 |
| 20260506035004 | 63 | 247 | 0.0 | 0.0 | 0.00 | 0.00 | 0.00 | 69 | 1013.7 |
| 20260506034502 | 63 | 247 | 0.0 | 1.0 | 0.00 | 0.00 | 0.00 | 69 | 1013.6 |
| 20260506033503 | 64 | 247 | 0.0 | 1.0 | 0.00 | 0.00 | 0.00 | 68 | 1013.6 |
| 20260506033002 | 64 | 247 | 0.0 | 1.0 | 0.00 | 0.00 | 0.00 | 67 | 1013.6 |
| 20260506032501 | 64 | 247 | 0.0 | 1.0 | 0.00 | 0.00 | 0.00 | 67 | 1013.6 |
| 20260506032004 | 64 | 259 | 0.0 | 0.0 | 0.00 | 0.00 | 0.00 | 67 | 1013.7 |
| 20260506031503 | 65 | 259 | 0.0 | 0.0 | 0.00 | 0.00 | 0.00 | 67 | 1013.8 |
| 20260506031002 | 65 | 259 | 0.0 | 0.0 | 0.00 | 0.00 | 0.00 | 67 | 1013.8 |
| 20260506030007 | 65 | 259 | 0.0 | 2.0 | 0.00 | 0.00 | 0.00 | 66 | 1013.9 |
| 20260506025503 | 65 | 259 | 0.0 | 0.0 | 0.00 | 0.00 | 0.00 | 66 | 1014.0 |
| 20260506025004 | 65 | 259 | 0.0 | 0.0 | 0.00 | 0.00 | 0.00 | 65 | 1014.1 |
| 20260506024503 | 66 | 259 | 0.0 | 0.0 | 0.00 | 0.00 | 0.00 | 65 | 1014.1 |
| 20260506024003 | 66 | 259 | 0.0 | 0.0 | 0.00 | 0.00 | 0.00 | 65 | 1014.0 |
| 20260506023502 | 66 | 259 | 0.0 | 0.0 | 0.00 | 0.00 | 0.00 | 66 | 1014.0 |
| 20260506023004 | 66 | 259 | 0.0 | 2.0 | 0.00 | 0.00 | 0.00 | 66 | 1013.7 |
| 20260506022503 | 66 | 259 | 0.0 | 2.0 | 0.00 | 0.00 | 0.00 | 67 | 1013.7 |
| 20260506022003 | 66 | 259 | 0.0 | 0.0 | 0.00 | 0.00 | 0.00 | 64 | 1013.5 |
| 20260506020503 | 67 | 259 | 0.0 | 0.0 | 0.00 | 0.00 | 0.00 | 63 | 1013.3 |
| 20260506020006 | 68 | 259 | 0.0 | 0.0 | 0.00 | 0.00 | 0.00 | 63 | 1013.2 |
| 20260506015505 | 68 | 259 | 0.0 | 0.0 | 0.00 | 0.00 | 0.00 | 62 | 1013.2 |
| 20260506014503 | 68 | 259 | 0.0 | 0.0 | 0.00 | 0.00 | 0.00 | 62 | 1013.3 |
| 20260506014003 | 69 | 259 | 0.0 | 0.0 | 0.00 | 0.00 | 0.00 | 63 | 1013.2 |
| 20260506013504 | 69 | 259 | 0.0 | 0.0 | 0.00 | 0.00 | 0.00 | 62 | 1013.2 |
| 20260506013003 | 69 | 259 | 0.0 | 0.0 | 0.00 | 0.00 | 0.00 | 61 | 1013.5 |
| 20260506012503 | 69 | 259 | 0.0 | 0.0 | 0.00 | 0.00 | 0.00 | 59 | 1013.6 |
| 20260506012004 | 69 | 259 | 0.0 | 0.0 | 0.00 | 0.00 | 0.00 | 58 | 1013.6 |
| 20260506011503 | 70 | 259 | 0.0 | 0.0 | 0.00 | 0.00 | 0.00 | 57 | 1013.5 |
| 20260506011003 | 70 | 259 | 0.0 | 0.0 | 0.00 | 0.00 | 0.00 | 57 | 1013.6 |
| 20260506010505 | 70 | 259 | 0.0 | 0.0 | 0.00 | 0.00 | 0.00 | 55 | 1013.5 |
| 20260506010006 | 70 | 259 | 0.0 | 0.0 | 0.00 | 0.00 | 0.00 | 55 | 1013.4 |
| 20260506005503 | 71 | 259 | 0.0 | 1.0 | 0.00 | 0.00 | 0.00 | 55 | 1013.4 |
| 20260506005002 | 71 | 259 | 0.0 | 1.0 | 0.00 | 0.00 | 0.00 | 54 | 1013.3 |
| 20260506004004 | 71 | 259 | 0.0 | 1.0 | 0.00 | 0.00 | 0.00 | 53 | 1013.4 |
| 20260506003502 | 71 | 265 | 0.0 | 1.0 | 0.00 | 0.00 | 0.00 | 52 | 1013.4 |
| 20260506003003 | 71 | 217 | 0.0 | 3.0 | 0.00 | 0.00 | 0.00 | 52 | 1013.4 |
| 20260506002005 | 72 | 189 | 1.0 | 4.0 | 0.00 | 0.00 | 0.00 | 52 | 1013.4 |
| 20260506001505 | 72 | 281 | 0.0 | 3.0 | 0.00 | 0.00 | 0.00 | 51 | 1013.4 |
| 20260506001002 | 72 | 262 | 0.0 | 1.0 | 0.00 | 0.00 | 0.00 | 51 | 1013.4 |
| 20260506000503 | 73 | 262 | 0.0 | 1.0 | 0.00 | 0.00 | 0.00 | 52 | 1013.3 |
| 20260506000006 | 73 | 237 | 0.0 | 1.0 | 0.00 | 0.00 | 0.00 | 52 | 1013.2 |
| 20260505235503 | 73 | 237 | 0.0 | 2.0 | 0.00 | 0.00 | 0.00 | 51 | 1013.3 |
| 20260505235002 | 73 | 270 | 0.0 | 2.0 | 0.00 | 0.00 | 0.00 | 50 | 1013.5 |
| 20260505234504 | 74 | 169 | 0.0 | 4.0 | 0.00 | 0.00 | 0.00 | 49 | 1013.4 |
| 20260505234002 | 74 | 169 | 0.0 | 4.0 | 0.00 | 0.00 | 0.00 | 48 | 1013.4 |
| 20260505233502 | 74 | 258 | 0.0 | 2.0 | 0.00 | 0.00 | 0.00 | 48 | 1013.4 |
| 20260505233002 | 75 | 258 | 0.0 | 4.0 | 0.00 | 0.00 | 0.00 | 47 | 1013.3 |
| 20260505232004 | 75 | 205 | 1.0 | 3.0 | 0.00 | 0.00 | 0.00 | 46 | 1013.3 |
| 20260505231502 | 75 | 298 | 1.0 | 3.0 | 0.00 | 0.00 | 0.00 | 46 | 1013.4 |
| 20260505231002 | 76 | 323 | 1.0 | 6.0 | 0.00 | 0.00 | 0.00 | 45 | 1013.4 |
| 20260505230502 | 76 | 132 | 2.0 | 6.0 | 0.00 | 0.00 | 0.00 | 45 | 1013.2 |
| 20260505230007 | 76 | 198 | 2.0 | 5.0 | 0.00 | 0.00 | 0.00 | 44 | 1013.3 |
| 20260505225502 | 76 | 188 | 1.0 | 4.0 | 0.00 | 0.00 | 0.00 | 45 | 1013.3 |
| 20260505225003 | 76 | 327 | 2.0 | 7.0 | 0.00 | 0.00 | 0.00 | 44 | 1013.3 |
| 20260505224502 | 76 | 196 | 3.0 | 10.0 | 0.00 | 0.00 | 0.00 | 43 | 1013.4 |
| 20260505223004 | 77 | 257 | 1.0 | 6.0 | 0.00 | 0.00 | 0.00 | 43 | 1013.3 |
| 20260505222004 | 77 | 181 | 3.0 | 9.0 | 0.00 | 0.00 | 0.00 | 43 | 1013.3 |
| 20260505221502 | 77 | 164 | 3.0 | 10.0 | 0.00 | 0.00 | 0.00 | 42 | 1013.4 |
| 20260505221002 | 77 | 290 | 3.0 | 9.0 | 0.00 | 0.00 | 0.00 | 41 | 1013.3 |
| 20260505220502 | 77 | 219 | 2.0 | 9.0 | 0.00 | 0.00 | 0.00 | 41 | 1013.4 |
| 20260505220006 | 77 | 296 | 2.0 | 8.0 | 0.00 | 0.00 | 0.00 | 42 | 1013.3 |
| 20260505215502 | 77 | 221 | 2.0 | 8.0 | 0.00 | 0.00 | 0.00 | 41 | 1013.4 |
| 20260505215002 | 77 | 284 | 2.0 | 8.0 | 0.00 | 0.00 | 0.00 | 42 | 1013.3 |
| 20260505214504 | 78 | 315 | 3.0 | 8.0 | 0.00 | 0.00 | 0.00 | 41 | 1013.5 |
| 20260505214003 | 78 | 182 | 3.0 | 8.0 | 0.00 | 0.00 | 0.00 | 40 | 1013.4 |
| 20260505213502 | 78 | 232 | 2.0 | 8.0 | 0.00 | 0.00 | 0.00 | 41 | 1013.2 |
| 20260505213002 | 78 | 238 | 2.0 | 7.0 | 0.00 | 0.00 | 0.00 | 41 | 1013.3 |
| 20260505212004 | 79 | 134 | 2.0 | 6.0 | 0.00 | 0.00 | 0.00 | 41 | 1013.4 |
| 20260505211502 | 79 | 181 | 2.0 | 7.0 | 0.00 | 0.00 | 0.00 | 43 | 1013.5 |
| 20260505211002 | 79 | 165 | 2.0 | 9.0 | 0.00 | 0.00 | 0.00 | 43 | 1013.5 |
| 20260505210502 | 79 | 302 | 2.0 | 9.0 | 0.00 | 0.00 | 0.00 | 41 | 1013.7 |
| 20260505210006 | 79 | 223 | 2.0 | 7.0 | 0.00 | 0.00 | 0.00 | 40 | 1013.5 |
| 20260505205501 | 79 | 335 | 2.0 | 7.0 | 0.00 | 0.00 | 0.00 | 42 | 1013.6 |
| 20260505205002 | 80 | 308 | 2.0 | 5.0 | 0.00 | 0.00 | 0.00 | 40 | 1013.5 |
| 20260505204503 | 80 | 165 | 2.0 | 4.0 | 0.00 | 0.00 | 0.00 | 42 | 1013.6 |
| 20260505204001 | 80 | 136 | 2.0 | 8.0 | 0.00 | 0.00 | 0.00 | 41 | 1013.7 |
| 20260505203501 | 80 | 10 | 2.0 | 8.0 | 0.00 | 0.00 | 0.00 | 41 | 1013.8 |
| 20260505203002 | 80 | 269 | 1.0 | 3.0 | 0.00 | 0.00 | 0.00 | 41 | 1013.7 |
| 20260505202501 | 80 | 288 | 2.0 | 9.0 | 0.00 | 0.00 | 0.00 | 41 | 1014.0 |
| 20260505202002 | 81 | 293 | 2.0 | 9.0 | 0.00 | 0.00 | 0.00 | 39 | 1014.0 |
| 20260505201501 | 81 | 148 | 3.0 | 8.0 | 0.00 | 0.00 | 0.00 | 37 | 1014.0 |
| 20260505200501 | 81 | 111 | 2.0 | 9.0 | 0.00 | 0.00 | 0.00 | 40 | 1013.9 |
| 20260505195501 | 81 | 307 | 2.0 | 5.0 | 0.00 | 0.00 | 0.00 | 39 | 1014.1 |
| 20260505194502 | 80 | 230 | 4.0 | 16.0 | 0.00 | 0.00 | 0.00 | 41 | 1014.4 |
| 20260505194003 | 80 | 316 | 4.0 | 16.0 | 0.00 | 0.00 | 0.00 | 37 | 1014.6 |
| 20260505193501 | 81 | 360 | 3.0 | 11.0 | 0.00 | 0.00 | 0.00 | 38 | 1014.6 |
| 20260505193001 | 81 | 299 | 2.0 | 11.0 | 0.00 | 0.00 | 0.00 | 40 | 1014.8 |
| 20260505192500 | 81 | 233 | 2.0 | 7.0 | 0.00 | 0.00 | 0.00 | 40 | 1014.9 |
| 20260505192002 | 80 | 170 | 3.0 | 8.0 | 0.00 | 0.00 | 0.00 | 42 | 1015.1 |
| 20260505191501 | 80 | 323 | 4.0 | 12.0 | 0.00 | 0.00 | 0.00 | 42 | 1014.8 |
| 20260505191001 | 79 | 304 | 4.0 | 14.0 | 0.00 | 0.00 | 0.00 | 39 | 1015.1 |
| 20260505190501 | 79 | 283 | 3.0 | 13.0 | 0.00 | 0.00 | 0.00 | 41 | 1015.3 |
| 20260505190006 | 79 | 304 | 3.0 | 13.0 | 0.00 | 0.00 | 0.00 | 40 | 1015.4 |
| 20260505185501 | 80 | 240 | 3.0 | 13.0 | 0.00 | 0.00 | 0.00 | 40 | 1015.2 |
| 20260505185001 | 80 | 296 | 2.0 | 7.0 | 0.00 | 0.00 | 0.00 | 42 | 1015.3 |
| 20260505184501 | 79 | 171 | 3.0 | 8.0 | 0.00 | 0.00 | 0.00 | 42 | 1015.4 |
| 20260505184002 | 79 | 309 | 2.0 | 8.0 | 0.00 | 0.00 | 0.00 | 41 | 1015.4 |
| 20260505183500 | 79 | 278 | 2.0 | 9.0 | 0.00 | 0.00 | 0.00 | 41 | 1015.4 |
| 20260505183001 | 79 | 13 | 3.0 | 9.0 | 0.00 | 0.00 | 0.00 | 42 | 1015.5 |
| 20260505182501 | 78 | 266 | 3.0 | 9.0 | 0.00 | 0.00 | 0.00 | 41 | 1015.5 |
| 20260505182002 | 78 | 301 | 3.0 | 8.0 | 0.00 | 0.00 | 0.00 | 43 | 1015.7 |
| 20260505181501 | 78 | 325 | 3.0 | 10.0 | 0.00 | 0.00 | 0.00 | 44 | 1015.7 |
| 20260505181001 | 78 | 304 | 3.0 | 10.0 | 0.00 | 0.00 | 0.00 | 43 | 1015.7 |
| 20260505180005 | 78 | 284 | 5.0 | 13.0 | 0.00 | 0.00 | 0.00 | 43 | 1016.1 |
| 20260505175501 | 78 | 226 | 4.0 | 17.0 | 0.00 | 0.00 | 0.00 | 41 | 1016.4 |
| 20260505175001 | 78 | 247 | 3.0 | 12.0 | 0.00 | 0.00 | 0.00 | 40 | 1016.4 |
| 20260505174503 | 78 | 287 | 3.0 | 10.0 | 0.00 | 0.00 | 0.00 | 40 | 1016.5 |
| 20260505174001 | 77 | 279 | 3.0 | 10.0 | 0.00 | 0.00 | 0.00 | 39 | 1016.5 |
| 20260505173501 | 78 | 328 | 3.0 | 11.0 | 0.00 | 0.00 | 0.00 | 41 | 1016.4 |
| 20260505173001 | 78 | 340 | 4.0 | 12.0 | 0.00 | 0.00 | 0.00 | 37 | 1016.3 |
| 20260505172504 | 77 | 327 | 3.0 | 12.0 | 0.00 | 0.00 | 0.00 | 40 | 1016.5 |
| 20260505172001 | 77 | 315 | 3.0 | 10.0 | 0.00 | 0.00 | 0.00 | 37 | 1016.4 |
| 20260505171502 | 78 | 331 | 3.0 | 9.0 | 0.00 | 0.00 | 0.00 | 37 | 1016.4 |
| 20260505170502 | 79 | 334 | 5.0 | 14.0 | 0.00 | 0.00 | 0.00 | 35 | 1016.3 |
| 20260505165503 | 78 | 264 | 3.0 | 11.0 | 0.00 | 0.00 | 0.00 | 40 | 1016.3 |
| 20260505164502 | 77 | 267 | 4.0 | 13.0 | 0.00 | 0.00 | 0.00 | 41 | 1016.3 |
| 20260505164002 | 77 | 327 | 4.0 | 10.0 | 0.00 | 0.00 | 0.00 | 42 | 1016.3 |
| 20260505163503 | 77 | 254 | 4.0 | 10.0 | 0.00 | 0.00 | 0.00 | 45 | 1016.4 |
| 20260505163002 | 77 | 300 | 4.0 | 11.0 | 0.00 | 0.00 | 0.00 | 45 | 1016.5 |
| 20260505162501 | 77 | 309 | 4.0 | 11.0 | 0.00 | 0.00 | 0.00 | 46 | 1016.4 |
| 20260505161502 | 76 | 302 | 3.0 | 10.0 | 0.00 | 0.00 | 0.00 | 46 | 1016.5 |
| 20260505161002 | 76 | 128 | 2.0 | 7.0 | 0.00 | 0.00 | 0.00 | 52 | 1016.6 |
| 20260505160501 | 75 | 259 | 2.0 | 8.0 | 0.00 | 0.00 | 0.00 | 49 | 1016.6 |
| 20260505153002 | 74 | 181 | 1.0 | 3.0 | 0.00 | 0.00 | 0.00 | 55 | 1016.9 |
| 20260505152504 | 74 | 317 | 1.0 | 4.0 | 0.00 | 0.00 | 0.00 | 57 | 1016.8 |
| 20260505152002 | 73 | 182 | 2.0 | 5.0 | 0.00 | 0.00 | 0.00 | 56 | 1016.9 |
| 20260505151503 | 73 | 257 | 2.0 | 5.0 | 0.00 | 0.00 | 0.00 | 57 | 1017.0 |
| 20260505151001 | 72 | 194 | 2.0 | 6.0 | 0.00 | 0.00 | 0.00 | 58 | 1017.0 |
| 20260505150503 | 72 | 304 | 2.0 | 6.0 | 0.00 | 0.00 | 0.00 | 59 | 1017.1 |